FW5161 Weather Reports


Display with metric or nautical units.
time (UTC)temp
F
wind
direction
speed
MPH
gust
MPH
rain 1hr
in
rain 24hr
in
rain mn
in
humidity
%
barometer
mb
20260510123006 54 98 0.0 0.0 0.00 0.00 0.00 78 1014.5
20260510122006 55 98 0.0 0.0 0.00 0.00 0.00 77 1014.6
20260510121504 55 98 0.0 0.0 0.00 0.00 0.00 77 1014.5
20260510121240 55 98 0.0 0.0 0.00 0.00 0.00 77 1014.7
20260510120512 55 98 0.0 0.0 0.00 0.00 0.00 77 1014.7
20260510120239 55 98 0.0 0.0 0.00 0.00 0.00 77 1014.8
20260510115510 55 98 0.0 0.0 0.00 0.00 0.00 77 1014.8
20260510115003 55 98 0.0 0.0 0.00 0.00 0.00 77 1014.8
20260510114503 55 98 0.0 0.0 0.00 0.00 0.00 77 1014.9
20260510113503 55 98 0.0 0.0 0.00 0.00 0.00 76 1015.0
20260510113001 55 359 0.0 0.0 0.00 0.00 0.00 76 1014.8
20260510112505 55 141 0.0 0.0 0.00 0.00 0.00 76 1015.0
20260510112004 55 141 0.0 0.0 0.00 0.00 0.00 76 1014.9
20260510111501 55 143 0.0 0.0 0.00 0.00 0.00 76 1014.8
20260510111001 55 148 0.0 0.0 0.00 0.00 0.00 76 1014.8
20260510110501 55 148 0.0 0.0 0.00 0.00 0.00 75 1014.8
20260510105957 55 152 0.0 0.0 0.00 0.00 0.00 75 1014.7
20260510105452 56 152 0.0 0.0 0.00 0.00 0.00 74 1014.7
20260510104946 56 152 0.0 0.0 0.00 0.00 0.00 74 1014.7
20260510104440 55 147 0.0 0.0 0.00 0.00 0.00 75 1014.7
20260510103936 55 157 0.0 0.0 0.00 0.00 0.00 74 1014.7
20260510103434 55 156 0.0 0.0 0.00 0.00 0.00 74 1014.7
20260510102934 56 157 0.0 0.0 0.00 0.00 0.00 74 1014.7
20260510102434 55 156 0.0 0.0 0.00 0.00 0.00 74 1014.7
20260510101933 55 156 0.0 0.0 0.00 0.00 0.00 74 1014.7
20260510101434 56 156 0.0 0.0 0.00 0.00 0.00 74 1014.7
20260510101157 56 157 0.0 2.0 0.00 0.00 0.00 74 1014.7
20260510100430 56 156 1.0 2.0 0.00 0.00 0.00 74 1014.7
20260510095930 56 156 2.0 3.0 0.00 0.00 0.00 74 1014.6
20260510095429 56 156 2.0 3.0 0.00 0.00 0.00 73 1014.6
20260510094932 56 172 1.0 3.0 0.00 0.00 0.00 73 1014.7
20260510094429 56 180 0.0 2.0 0.00 0.00 0.00 72 1014.7
20260510094150 57 180 0.0 2.0 0.00 0.00 0.00 72 1014.7
20260510093429 57 180 0.0 2.0 0.00 0.00 0.00 71 1014.7
20260510092928 57 180 0.0 2.0 0.00 0.00 0.00 71 1014.7
20260510092426 57 180 0.0 2.0 0.00 0.00 0.00 70 1014.8
20260510091926 58 181 0.0 2.0 0.00 0.00 0.00 69 1014.8
20260510091421 58 225 1.0 2.0 0.00 0.00 0.00 69 1014.8
20260510091145 58 220 1.0 5.0 0.00 0.00 0.00 69 1014.8
20260510090419 58 200 2.0 5.0 0.00 0.00 0.00 69 1014.8
20260510085920 58 174 1.0 5.0 0.00 0.00 0.00 69 1014.8
20260510085417 58 191 1.0 4.0 0.00 0.00 0.00 68 1014.7
20260510084917 58 129 1.0 3.0 0.00 0.00 0.00 68 1014.7
20260510084417 58 184 2.0 4.0 0.00 0.00 0.00 68 1014.8
20260510083918 57 183 2.0 4.0 0.00 0.00 0.00 68 1014.9
20260510083418 57 191 2.0 4.0 0.00 0.00 0.00 69 1014.8
20260510082918 56 174 1.0 4.0 0.00 0.00 0.00 70 1014.8
20260510082414 56 174 1.0 3.0 0.00 0.00 0.00 70 1014.8
20260510081914 57 189 1.0 2.0 0.00 0.00 0.00 69 1014.7
20260510081414 57 253 2.0 6.0 0.00 0.00 0.00 68 1014.6
20260510080914 57 249 2.0 6.0 0.00 0.00 0.00 68 1014.6
20260510080414 57 128 1.0 3.0 0.00 0.00 0.00 69 1014.7
20260510075914 57 165 1.0 3.0 0.00 0.00 0.00 69 1014.6
20260510075414 57 238 1.0 3.0 0.00 0.00 0.00 69 1014.7
20260510074914 57 104 1.0 3.0 0.00 0.00 0.00 69 1014.6
20260510074414 57 104 1.0 2.0 0.00 0.00 0.00 69 1014.5
20260510073912 57 105 0.0 2.0 0.00 0.00 0.00 69 1014.5
20260510073409 57 105 1.0 3.0 0.00 0.00 0.00 69 1014.5
20260510072910 57 106 2.0 3.0 0.00 0.00 0.00 69 1014.5
20260510072412 57 109 2.0 3.0 0.00 0.00 0.00 69 1014.5
20260510071909 57 108 2.0 3.0 0.00 0.00 0.00 69 1014.6
20260510071410 57 114 2.0 3.0 0.00 0.00 0.00 68 1014.6
20260510070910 58 118 2.0 5.0 0.00 0.00 0.00 67 1014.6
20260510070409 58 230 2.0 7.0 0.00 0.00 0.00 66 1014.7
20260510065907 60 270 3.0 7.0 0.00 0.00 0.00 64 1014.7
20260510065407 59 263 3.0 7.0 0.00 0.00 0.00 65 1014.8
20260510064907 59 251 2.0 5.0 0.00 0.00 0.00 66 1014.8
20260510064407 58 295 1.0 5.0 0.00 0.00 0.00 67 1014.7
20260510062907 57 127 1.0 4.0 0.00 0.00 0.00 69 1014.8
20260510062637 56 119 0.0 2.0 0.00 0.00 0.00 70 1014.8
20260510061907 56 116 0.0 0.0 0.00 0.00 0.00 69 1014.8
20260510061407 56 116 0.0 0.0 0.00 0.00 0.00 69 1014.8
20260510060909 57 116 0.0 0.0 0.00 0.00 0.00 69 1014.7
20260510060407 57 116 0.0 0.0 0.00 0.00 0.00 69 1014.7
20260510055907 57 116 0.0 0.0 0.00 0.00 0.00 68 1014.7
20260510055405 57 116 0.0 0.0 0.00 0.00 0.00 68 1014.7
20260510054904 57 116 0.0 2.0 0.00 0.00 0.00 68 1014.7
20260510054403 58 117 1.0 3.0 0.00 0.00 0.00 68 1014.7
20260510053904 57 117 2.0 3.0 0.00 0.00 0.00 68 1014.7
20260510053402 57 125 1.0 3.0 0.00 0.00 0.00 68 1014.8
20260510052901 57 126 1.0 2.0 0.00 0.00 0.00 68 1014.9
20260510052401 57 126 0.0 2.0 0.00 0.00 0.00 68 1014.9
20260510051903 58 126 1.0 2.0 0.00 0.00 0.00 67 1014.9
20260510051401 58 126 1.0 2.0 0.00 0.00 0.00 68 1014.9
20260510050858 58 126 0.0 3.0 0.00 0.00 0.00 67 1014.9
20260510050357 58 126 1.0 3.0 0.00 0.00 0.00 67 1015.0
20260510045854 58 126 2.0 6.0 0.00 0.00 0.00 67 1015.1
20260510045355 58 102 3.0 7.0 0.00 0.00 0.00 67 1015.1
20260510044855 58 164 3.0 8.0 0.00 0.00 0.00 67 1015.2
20260510044355 58 155 3.0 8.0 0.00 0.00 0.00 67 1015.3
20260510043854 58 157 4.0 8.0 0.00 0.00 0.00 66 1015.2
20260510043354 58 191 4.0 9.0 0.00 0.00 0.00 67 1015.2
20260510042854 58 152 4.0 9.0 0.00 0.00 0.00 66 1015.3
20260510042357 59 199 3.0 8.0 0.00 0.00 0.00 65 1015.3
20260510041850 59 211 2.0 8.0 0.00 0.00 0.00 66 1015.2
20260510041616 58 135 2.0 3.0 0.00 0.00 0.00 66 1015.2
20260510040836 58 178 2.0 3.0 0.00 0.00 0.00 66 1015.1
20260510040329 58 66 2.0 3.0 0.00 0.00 0.00 67 1015.1
20260510035829 58 60 2.0 3.0 0.00 0.00 0.00 67 1015.1
20260510035603 58 58 1.0 3.0 0.00 0.00 0.00 67 1015.0
20260510035059 58 58 0.0 2.0 0.00 0.00 0.00 68 1015.0
20260510034330 59 58 0.0 2.0 0.00 0.00 0.00 68 1014.9
20260510033828 59 56 1.0 2.0 0.00 0.00 0.00 67 1014.9
20260510033601 59 54 0.0 2.0 0.00 0.00 0.00 66 1015.0
20260510032829 60 45 0.0 0.0 0.00 0.00 0.00 66 1015.0
20260510032601 60 43 0.0 2.0 0.00 0.00 0.00 65 1015.1
20260510031829 60 43 0.0 2.0 0.00 0.00 0.00 65 1015.0
20260510031330 60 43 1.0 2.0 0.00 0.00 0.00 65 1015.1
20260510030829 60 43 1.0 2.0 0.00 0.00 0.00 64 1015.1
20260510030601 60 43 1.0 2.0 0.00 0.00 0.00 65 1015.0
20260510025828 60 43 1.0 2.0 0.00 0.00 0.00 65 1015.2
20260510025329 60 43 2.0 2.0 0.00 0.00 0.00 66 1015.1
20260510024829 61 43 2.0 2.0 0.00 0.00 0.00 66 1015.2
20260510024332 61 357 1.0 2.0 0.00 0.00 0.00 65 1015.3
20260510024101 61 326 1.0 2.0 0.00 0.00 0.00 64 1015.3
20260510023323 62 324 0.0 1.0 0.00 0.00 0.00 63 1015.3
20260510022816 62 318 0.0 0.0 0.00 0.00 0.00 60 1015.3
20260510022317 63 318 1.0 3.0 0.00 0.00 0.00 59 1015.5
20260510021812 64 318 2.0 3.0 0.00 0.00 0.00 56 1015.4
20260510021310 64 318 2.0 4.0 0.00 0.00 0.00 57 1015.5
20260510020808 64 320 3.0 4.0 0.00 0.00 0.00 57 1015.5
20260510015805 66 314 2.0 4.0 0.00 0.00 0.00 55 1015.7
20260510015306 66 306 1.0 6.0 0.00 0.00 0.00 56 1015.8
20260510014803 67 69 1.0 6.0 0.00 0.00 0.00 54 1015.8
20260510014302 67 67 2.0 6.0 0.00 0.00 0.00 56 1015.9
20260510013802 65 85 2.0 6.0 0.00 0.00 0.00 54 1015.9
20260510013301 67 87 2.0 5.0 0.00 0.00 0.00 55 1015.7
20260510012801 66 13 1.0 4.0 0.00 0.00 0.00 55 1015.9
20260510012306 66 89 2.0 5.0 0.00 0.00 0.00 54 1016.0
20260510011301 67 96 1.0 5.0 0.00 0.00 0.00 53 1016.2
20260510010802 67 104 2.0 4.0 0.00 0.00 0.00 55 1016.4
20260510010301 66 86 1.0 4.0 0.00 0.00 0.00 53 1016.4
20260510005802 65 88 1.0 3.0 0.00 0.00 0.00 55 1016.6
20260510005527 66 56 1.0 3.0 0.00 0.00 0.00 52 1016.6
20260510004244 67 323 2.0 4.0 0.00 0.00 0.00 52 1016.8
20260510003738 67 26 2.0 4.0 0.00 0.00 0.00 54 1016.8
20260510003231 67 317 2.0 5.0 0.00 0.00 0.00 54 1016.8
20260510002732 67 312 2.0 5.0 0.00 0.00 0.00 53 1016.8
20260510002504 67 7 2.0 4.0 0.00 0.00 0.00 50 1016.8
20260510001730 66 12 3.0 7.0 0.00 0.00 0.00 53 1016.9
20260510001500 67 319 3.0 7.0 0.00 0.00 0.00 51 1017.0
20260510001004 68 308 3.0 5.0 0.00 0.00 0.00 51 1017.2
20260510000230 68 349 3.0 5.0 0.00 0.00 0.00 49 1017.0
20260509235230 68 316 2.0 4.0 0.00 0.00 0.00 50 1017.2
20260509234730 68 70 2.0 6.0 0.00 0.00 0.00 49 1017.2
20260509234231 67 56 3.0 6.0 0.00 0.00 0.00 54 1017.5
20260509233730 66 314 2.0 5.0 0.00 0.00 0.00 54 1017.5
20260509233230 65 311 2.0 6.0 0.00 0.00 0.00 53 1017.6
20260509232733 65 331 2.0 6.0 0.00 0.00 0.00 55 1017.7
20260509232230 65 322 2.0 6.0 0.00 0.00 0.00 55 1017.7
20260509231732 65 326 2.0 6.0 0.00 0.00 0.00 54 1017.8
20260509231233 65 316 2.0 5.0 0.00 0.00 0.00 54 1017.8
20260509230733 66 309 2.0 5.0 0.00 0.00 0.00 54 1017.9
20260509230233 66 318 3.0 7.0 0.00 0.00 0.00 54 1018.2
20260509225958 65 307 3.0 7.0 0.00 0.00 0.00 53 1018.3
20260509225229 65 322 4.0 7.0 0.00 0.00 0.00 52 1018.3
20260509224729 66 316 3.0 5.0 0.00 0.00 0.00 53 1018.3
20260509224230 66 313 2.0 5.0 0.00 0.00 0.00 52 1018.4
20260509223954 67 308 3.0 8.0 0.00 0.00 0.00 54 1018.5
20260509222729 66 316 4.0 9.0 0.00 0.00 0.00 55 1018.6
20260509222500 66 335 3.0 8.0 0.00 0.00 0.00 54 1018.7
20260509221729 67 317 2.0 7.0 0.00 0.00 0.00 53 1018.8
20260509221229 67 309 3.0 7.0 0.00 0.00 0.00 55 1019.0
20260509220729 65 314 4.0 8.0 0.00 0.00 0.00 55 1019.0
20260509220225 66 318 3.0 8.0 0.00 0.00 0.00 54 1019.1
20260509215719 66 317 3.0 5.0 0.00 0.00 0.00 57 1019.0
20260509215441 65 322 3.0 6.0 0.00 0.00 0.00 63 1019.1
20260509214706 65 322 4.0 6.0 0.00 0.00 0.00 60 1019.1
20260509214207 65 318 4.0 6.0 0.00 0.00 0.00 60 1019.2
20260509213708 65 303 2.0 5.0 0.00 0.00 0.00 63 1019.2
20260509213208 64 320 2.0 4.0 0.00 0.00 0.00 61 1019.3
20260509212202 63 307 2.0 4.0 0.00 0.00 0.00 65 1019.4
20260509211700 62 8 3.0 5.0 0.00 0.00 0.00 65 1019.4
20260509211201 63 321 3.0 5.0 0.00 0.00 0.00 66 1019.5
20260509210701 64 310 3.0 5.0 0.00 0.00 0.00 66 1019.4
20260509210202 62 314 3.0 5.0 0.00 0.00 0.00 67 1019.4
20260509205700 63 295 2.0 4.0 0.00 0.00 0.00 65 1019.6
20260509205202 64 16 3.0 5.0 0.00 0.00 0.00 64 1019.6
20260509204701 63 352 3.0 6.0 0.00 0.00 0.00 65 1019.6
20260509204202 62 317 2.0 6.0 0.00 0.00 0.00 67 1019.7
20260509203701 62 295 2.0 5.0 0.00 0.00 0.00 66 1019.8
20260509203201 61 311 3.0 5.0 0.00 0.00 0.00 70 1019.8
20260509202701 61 318 3.0 5.0 0.00 0.00 0.00 70 1019.7
20260509202200 61 312 2.0 5.0 0.00 0.00 0.00 71 1019.7
20260509201710 62 316 2.0 5.0 0.00 0.00 0.00 69 1019.5
20260509201431 62 317 2.0 4.0 0.00 0.00 0.00 69 1019.6
20260509200934 62 334 2.0 4.0 0.00 0.00 0.00 71 1019.6
20260509200204 60 271 2.0 4.0 0.00 0.00 0.00 69 1019.8
20260509195704 60 301 3.0 5.0 0.00 0.00 0.00 72 1019.9
20260509195204 60 316 3.0 5.0 0.00 0.00 0.00 72 1019.9
20260509194704 61 319 2.0 4.0 0.00 0.00 0.00 70 1019.9
20260509194430 61 321 2.0 4.0 0.00 0.00 0.00 70 1019.8
20260509193926 63 307 2.0 4.0 0.00 0.00 0.00 70 1019.9
20260509193204 60 319 2.0 4.0 0.00 0.00 0.00 71 1019.9
20260509192705 62 306 2.0 5.0 0.00 0.00 0.00 70 1020.0
20260509192200 62 301 2.0 5.0 0.00 0.00 0.00 71 1020.1
20260509191701 61 309 3.0 5.0 0.00 0.00 0.00 70 1020.1
20260509191200 60 330 3.0 5.0 0.00 0.00 0.00 72 1020.1
20260509190701 61 322 2.0 4.0 0.00 0.00 0.00 73 1020.1
20260509190201 61 314 2.0 4.0 0.00 0.00 0.00 71 1020.2
20260509185701 60 302 2.0 4.0 0.00 0.00 0.00 73 1020.3
20260509185201 60 322 2.0 4.0 0.00 0.00 0.00 74 1020.5
20260509184657 60 318 3.0 5.0 0.00 0.00 0.00 75 1020.7
20260509184151 60 317 3.0 5.0 0.00 0.00 0.00 74 1020.7
20260509183643 60 306 3.0 5.0 0.00 0.00 0.00 73 1020.6
20260509183136 60 307 2.0 5.0 0.00 0.00 0.00 75 1020.5
20260509182629 60 314 2.0 5.0 0.00 0.00 0.00 75 1020.3
20260509182351 60 324 2.0 5.0 0.00 0.00 0.00 77 1020.5
20260509181619 60 325 2.0 5.0 0.00 0.00 0.00 75 1020.5
20260509181114 59 316 2.0 5.0 0.00 0.00 0.00 76 1020.5
20260509180614 59 327 2.0 5.0 0.00 0.00 0.00 75 1020.5
20260509180116 59 49 2.0 5.0 0.00 0.00 0.00 78 1020.7
20260509175613 59 278 2.0 5.0 0.00 0.00 0.00 75 1020.6
20260509175339 59 290 2.0 4.0 0.00 0.00 0.00 77 1020.5
20260509174613 58 316 2.0 4.0 0.00 0.00 0.00 76 1020.5
20260509174116 58 323 3.0 4.0 0.00 0.00 0.00 76 1020.5
20260509173614 58 324 2.0 4.0 0.00 0.00 0.00 76 1020.5
20260509173111 58 330 2.0 4.0 0.00 0.00 0.00 78 1020.6
20260509172608 58 321 3.0 4.0 0.00 0.00 0.00 78 1020.5
20260509172337 58 301 2.0 4.0 0.00 0.00 0.00 78 1020.6
20260509171608 57 295 2.0 4.0 0.00 0.00 0.00 77 1020.7
20260509171108 56 257 2.0 4.0 0.00 0.00 0.00 78 1020.8
20260509170832 56 309 2.0 4.0 0.00 0.00 0.00 79 1020.7
20260509165607 57 258 2.0 4.0 0.00 0.00 0.00 77 1020.7
20260509165107 57 316 2.0 4.0 0.00 0.00 0.00 77 1020.8
20260509164606 57 236 2.0 4.0 0.00 0.00 0.00 76 1020.9
20260509164105 57 315 1.0 3.0 0.00 0.00 0.00 78 1020.9
20260509163605 56 335 0.0 3.0 0.00 0.00 0.00 78 1020.8
20260509163104 56 295 1.0 2.0 0.00 0.00 0.00 79 1020.8
20260509162605 56 279 1.0 3.0 0.00 0.00 0.00 79 1020.8
20260509162105 56 285 1.0 3.0 0.00 0.00 0.00 81 1020.9
20260509161605 56 317 1.0 3.0 0.00 0.00 0.00 80 1020.9
20260509161105 56 318 2.0 3.0 0.00 0.00 0.00 80 1020.9
20260509160603 56 279 1.0 3.0 0.00 0.00 0.00 82 1021.1
20260509155601 55 329 1.0 3.0 0.00 0.00 0.00 81 1021.1
20260509155101 55 349 0.0 2.0 0.00 0.00 0.00 82 1021.2
20260509154601 55 349 0.0 0.0 0.00 0.00 0.00 82 1021.2
20260509154100 55 349 0.0 0.0 0.00 0.00 0.00 81 1021.4
20260509153601 55 299 0.0 1.0 0.00 0.00 0.00 82 1021.3
20260509153335 55 335 0.0 2.0 0.00 0.00 0.00 82 1021.3
20260509152601 54 356 1.0 2.0 0.00 0.00 0.00 82 1021.3
20260509152102 55 37 1.0 2.0 0.00 0.00 0.00 83 1021.2
20260509151601 54 17 1.0 2.0 0.00 0.00 0.00 83 1021.3
20260509151102 54 336 1.0 3.0 0.00 0.00 0.00 83 1021.3
20260509150602 54 335 1.0 3.0 0.00 0.00 0.00 83 1021.3
20260509145601 54 299 1.0 3.0 0.00 0.00 0.00 84 1021.4
20260509145101 54 295 1.0 3.0 0.00 0.00 0.00 84 1021.4
20260509144602 53 285 0.0 2.0 0.00 0.00 0.00 84 1021.5
20260509144102 53 285 1.0 2.0 0.00 0.00 0.00 84 1021.5
20260509143601 53 285 1.0 2.0 0.00 0.00 0.00 84 1021.4
20260509143101 53 285 0.0 2.0 0.00 0.00 0.00 84 1021.4
20260509142830 53 285 0.0 2.0 0.00 0.00 0.00 83 1021.4
20260509142100 53 295 1.0 2.0 0.00 0.00 0.00 83 1021.4
20260509141601 53 28 1.0 3.0 0.00 0.00 0.00 83 1021.5
20260509141336 54 25 1.0 3.0 0.00 0.00 0.00 82 1021.6
20260509140602 54 35 1.0 3.0 0.00 0.00 0.00 82 1021.5
20260509140059 54 49 0.0 3.0 0.00 0.00 0.00 80 1021.5
20260509135558 54 60 0.0 2.0 0.00 0.00 0.00 81 1021.5
20260509135056 54 58 0.0 2.0 0.00 0.00 0.00 82 1021.6
20260509134827 53 114 0.0 1.0 0.00 0.00 0.00 82 1021.7
20260509134053 53 120 0.0 0.0 0.00 0.00 0.00 83 1021.7
20260509133553 53 118 0.0 0.0 0.00 0.00 0.00 82 1021.7
20260509133053 53 117 0.0 0.0 0.00 0.00 0.00 81 1021.6
20260509132552 54 117 0.0 0.0 0.00 0.00 0.00 81 1021.6
20260509132052 53 116 0.0 0.0 0.00 0.00 0.00 81 1021.6
20260509131549 53 135 0.0 0.0 0.00 0.00 0.00 80 1021.5
20260509131046 53 135 0.0 0.0 0.00 0.00 0.00 80 1021.4
20260509130545 53 135 0.0 0.0 0.00 0.00 0.00 80 1021.6
20260509130042 53 135 0.0 0.0 0.00 0.00 0.00 80 1021.6
20260509125540 53 135 0.0 0.0 0.00 0.00 0.00 80 1021.5
20260509125038 53 135 0.0 0.0 0.00 0.00 0.00 79 1021.5
20260509124538 53 135 0.0 0.0 0.00 0.00 0.00 80 1021.4
20260509124038 53 135 0.0 0.0 0.00 0.00 0.00 80 1021.4